Back to catalog

STARLINK-5990

AliveCommunicationsVLEO
NORAD 56448·PAYLOAD·🇺🇸 United States

Launched May 10, 2023 from Vandenberg Space Force Base

Loading…

Next Passes (next 24 hours)

TLE

FreshSource: CelesTrak SupGP

Epoch: Sep 15, 2026, 02:14 UTC

1 56448C 23064A   26258.09354167 -.00008246  00000+0 -69114-3 0  2583
2 56448  70.0026  26.9734 0003154 267.2184 147.9689 14.98327891    15

Track STARLINK-5990 in real time with AllMySat

Download on the App Store